Location: Oberwangen
(47.4286°N, 8.9679°E)
Time: 08:40:23
(UTC+00:00)

Cosmos 1447 Rocket - Pass Details

Date: 31 October 2021
Orbit: 953 x 996 km, 82.9° (Epoch: 27 November)

Event Time Altitude Azimuth Distance (km) Brightness Sun altitude
Rises 18:15:20 0° 344° (NNW) 3,643 7.7 -21.9°
Reaches altitude 10° 18:17:59 10° 337° (NNW) 2,693 7.1 -22.4°
Maximum altitude 18:23:34 38° 272° (W) 1,425 5.9 -23.3°
Drops below altitude 10° 18:29:09 10° 206° (SSW) 2,690 7.0 -24.2°
Sets 18:31:49 0° 199° (SSW) 3,637 7.7 -24.7°
